Voltar ao catálogo

SATURN

AtivoCiênciaSSO
NORAD 57174·PAYLOAD·🇷🇺 Russia
Este nome de satélite ainda não foi confirmado por fontes oficiais.

Lançado Jun 27, 2023 de Vostochny Cosmodrome

Loading…

Próximas Passagens (próximas 24 horas)

TLE

AtualizadoSource: Space-Track

Época: Sep 14, 2026, 14:22 UTC

1 57174U 23091J   26257.59918380  .00002432  00000-0  13572-3 0  9996
2 57174  97.4960 309.4089 0012701 191.9729 168.1203 15.14437949177163

Acompanhe SATURN em tempo real com AllMySat

Download on the App Store